[[[{"header":{"parameterUnit":"kt","parameterCategory":2,"dx":1,"dy":1,"la1":30.253999710083008,"la2":30.299108505249023,"lo1":-89.0895004272461,"lo2":-89.04439544677734,"nx":28,"ny":28,"refTime":"2022-10-04T21:00:00:Z","depth":0,"parameterNumber":1,"parameterNumberName":"U-component_of_WINDS"},"data":[-10.775,-10.7909,-10.781,-10.7948,-10.7882,-10.796,-10.7956,-10.7942,-10.7906,-10.7992,-10.8024,-10.7942,-10.7869,-10.7887,-10.7919,-10.7882,-10.7904,-10.8036,-10.7971,-10.7469,-10.7393,-10.7321,-10.7274,-10.8041,-10.8042,-10.8504,-10.8508,-10.8511,-10.7401,-10.7337,-10.7379,-10.7352,-10.7388,-10.7202,-10.7167,-10.7211,-10.7287,-10.7243,-10.7267,-10.7335,-10.7376,-10.7254,-10.7279,-10.7356,-10.7271,-10.737,-10.7364,-10.7356,-10.6816,-10.6768,-10.7439,-10.7439,-10.7439,-10.7439,-10.7439,-10.7439,-10.6739,-10.6838,-10.676,-10.6803,-10.6762,-10.6746,-10.6824,-10.6716,-10.6758,-10.6765,-10.6637,-10.6722,-10.6659,-10.6637,-10.6605,-10.6671,-10.6542,-10.662,-10.664,-10.6663,-10.6704,-10.6059,-10.667,-10.6667,-10.6665,-10.6663,-10.6662,0,-10.6222,-10.613,-10.616,-10.6163,-10.6188,-10.6181,-10.6156,-10.6202,-10.5971,-10.6016,-10.6071,-10.6087,-10.612,-10.6164,-10.6162,-10.6109,-10.5922,-10.5891,-10.5944,-10.6009,-10.607,-10.6043,-10.5171,-10.5873,-10.5866,-10.5861,-10.5857,-10.5854,-10.5548,-10.5673,-10.5539,-10.5575,-10.5533,-10.5596,-10.5611,-10.5396,-10.5424,-10.5364,-10.5464,-10.5502,-10.5521,-10.5631,-10.5505,-10.553,-10.5439,-10.5719,-10.5441,-10.55,-10.5446,-10.5442,-10.5455,-10.5778,-10.5788,-10.5796,-10.5802,0,-10.518,-10.5006,-10.5166,-10.5018,-10.4986,-10.513,-10.5005,-10.5096,-10.4978,-10.5088,-10.5101,-10.4919,-10.4978,-10.4803,-10.4837,-10.4745,-10.4991,-10.4899,-10.5011,-10.4984,-10.522,-10.5202,-10.6007,-10.6102,-10.5302,-10.531,-10.5317,0,-10.4537,-10.4709,-10.4441,-10.4542,-10.4728,-10.4502,-10.4694,-10.461,-10.4545,-10.4629,-10.4382,-10.4467,-10.4227,-10.4289,-10.4153,-10.4321,-10.4326,-10.4266,-10.4228,-10.4289,-10.4298,-10.4302,-10.4267,-10.4132,-10.4128,-10.4125,-10.4122,0,-10.3978,-10.4033,-10.4196,-10.4181,-10.4039,-10.4123,-10.4069,-10.3991,-10.4009,-10.4003,-10.4012,-10.4024,-10.4031,-10.4046,-10.387,-10.3689,-10.407,-10.3784,-10.4009,-10.4015,-10.4103,-10.41,-10.4855,-10.4117,-10.4116,-10.4114,-10.4113,0,-10.3431,-10.3423,-10.3685,-10.356,-10.3583,-10.3692,-10.3683,-10.3734,-10.3671,-10.3589,-10.3583,-10.3396,-10.3523,-10.3254,-10.3429,-10.3242,-10.3266,-10.3218,-10.323,-10.3232,-10.2935,-10.3388,-10.4122,-10.4194,-10.3236,-10.3228,-10.3221,0,-10.2842,-10.3056,-10.2859,-10.3114,-10.3187,-10.29,-10.3017,-10.2965,-10.2864,-10.2915,-10.2803,-10.2864,-10.2624,-10.2618,-10.2728,-10.2617,-10.286,-10.2579,-10.2664,-10.267,-10.2691,-10.3365,-10.3518,-10.3981,-10.3125,-10.3135,-10.3142,0,-10.2361,-10.2177,-10.2236,-10.2208,-10.2098,-10.2157,-10.2292,-10.2297,-10.2342,-10.231,-10.2419,-10.2497,-10.232,-10.2312,-10.216,-10.2284,-10.2689,-10.2077,-10.2071,-10.2196,-10.306,-10.3206,-10.3284,-10.256,-10.2572,-10.2581,-10.3066,0,-10.1579,-10.1659,-10.1808,-10.1751,-10.1767,-10.1913,-10.1714,-10.1759,-10.1607,-10.1494,-10.165,-10.1559,-10.1568,-10.1607,-10.146,-10.1798,-10.1714,-10.1524,-10.1247,-10.169,-10.1845,-10.1908,-10.1032,-10.1023,-10.1015,-10.1009,0,0,-10.106,-10.1168,-10.0943,-10.1059,-10.1059,-10.0753,-10.0928,-10.0893,-10.083,-10.0839,-10.0682,-10.0781,-10.0714,-10.0924,-10.1046,-10.1049,-10.1093,-10.0944,-10.148,-10.1534,-10.1582,-10.1752,-10.1821,-10.0995,-10.0992,-10.0989,-10.0987,0,-10.073,-10.0659,-10.083,-10.0782,-10.07,-10.0568,-10.0611,-10.0477,-10.0412,-10.0558,-10.0307,-10.0376,-10.0459,-10.0422,-10.0415,-10.0914,-10.0722,-10.0931,-10.1266,-10.1408,-10.1472,-10.1527,-10.1708,-10.1776,-10.0967,-10.0969,-10.0969,0,-10.0222,-10.012,-10.0179,-10.0157,-10.0101,-10.0183,-9.9842,-9.9942,-10.0002,-9.9663,-9.9813,-9.9737,-9.9669,-9.9891,-9.9983,-9.9843,-10.0396,-10.0184,-10.0228,-10.0234,-10.0362,-10.0439,-10.0508,-9.9605,-9.9601,-9.9598,0,0,-9.9966,-10.0035,-9.9855,-10.0071,-10.0053,-9.9858,-9.988,-9.9728,-9.9669,-9.9647,-9.9542,-9.9497,-9.9542,-9.9578,-9.9609,-9.9881,-9.9851,-10.0024,-10.0088,-10.0142,-10.0178,-10.032,-10.0396,-9.9583,-9.9582,-9.9582,0,0,-9.9843,-9.964,-9.9494,-9.9717,-9.9669,-9.9507,-9.9649,-9.9468,-9.9474,-9.9434,-9.9186,-9.9163,-9.9366,-9.9301,-9.9124,-9.9508,-9.9238,-9.9276,-9.9543,-9.9621,-9.9684,-9.9696,-9.8764,0,0,0,0,0,-9.94,-9.9664,-9.9534,-9.9541,-9.951,-9.958,-9.9575,-9.9372,-9.9185,-9.9303,-9.9186,-9.8976,-9.9155,-9.8992,-9.9006,-9.9205,-9.9391,-9.9425,-9.9457,-9.9864,-9.9948,-10.0019,0,0,0,0,0,0,-9.94,-9.9409,-9.9526,-9.9379,-9.937,-9.9568,-9.9207,-9.9159,-9.9168,-9.9125,-9.9005,-9.8972,-9.8804,-9.8972,-9.8987,-9.918,-9.8758,-9.9404,-9.9433,-9.9459,-9.9892,-9.9961,-10.002,0,0,0,0,0,-9.94,-9.9407,-9.941,-9.9373,-9.9366,-9.916,-9.9195,-9.9152,-9.9155,-9.8974,-9.8934,-9.9002,-9.8815,-9.8813,-9.898,-9.9178,-9.8746,-9.8753,-9.9423,-9.9446,-9.9466,-9.9926,0,0,0,0,0,0,-9.94,-9.937,-9.9404,-9.9394,-9.9256,-9.9145,-9.912,-9.9148,-9.8999,-9.8963,-9.8957,-9.8926,-9.8826,-9.8822,-9.8823,-9.9189,-9.8737,-9.8743,-9.8747,-9.944,-9.9458,-9.9474,0,0,0,0,0,0,-9.9364,-9.9364,-9.9399,-9.9262,-9.9234,-9.9133,-9.911,-9.9222,-9.9002,-9.899,-9.8958,-9.8945,-9.8826,-9.8831,-9.883,-9.9012,-9.8729,-9.8735,-9.874,-9.8742,-9.9455,-9.9469,0,0,0,0,0,0,-9.936,-9.936,-9.9263,-9.9243,-9.9217,-9.9094,-9.9227,-9.9209,-9.8881,-9.9002,-9.8846,-9.883,-9.8841,-9.8835,-9.8836,-9.9021,-9.9014,-9.8729,-9.8734,-9.8737,-9.8739,0,0,0,0,0,0,0,-9.9357,-9.9409,-9.9461,-9.9226,-9.9203,-9.9305,-9.9302,-9.93,-9.8877,-9.8863,-9.8849,-9.8837,-9.8694,-9.8701,-9.8708,-9.9028,0,0,-9.8729,-9.8732,0,0,0,0,0,0,0,0,-9.9404,-9.9408,-9.9461,-9.9459,-9.9457,-9.9304,-9.9302,-9.93,-9.8875,-9.8864,-9.8852,-9.8842,-9.8696,-9.8701,-9.8707,0,0,0,0,0,0,0,0,0,0,0,0,0,0,0,-9.9461,-9.9459,0,-9.9304,-9.9302,-9.9301,-9.8873,-9.8864,-9.8855,-9.8846,-9.8697,-9.8702,-9.8706,0,0,0,0,0,0,0,0,0,0,0,0,0,0,0,0,0,0,0,0,0,0,0,0,0,0,0,0,0,0,0,0,0,0,0,0,0,0,0,0,0,0,0,0,0,0,0,0,0,0,0,0,0,0,0,0,0,0,0,0,0,0,0,0,0,0,0,0,0]}],[{"header":{"parameterUnit":"kt","parameterCategory":2,"dx":1,"dy":1,"la1":30.253999710083008,"la2":30.299108505249023,"lo1":-89.0895004272461,"lo2":-89.04439544677734,"nx":28,"ny":28,"refTime":"2022-10-04T21:00:00:Z","depth":0,"parameterNumber":2,"parameterNumberName":"V-component_of_WINDS"},"data":[3.2416,3.2257,3.2225,3.2025,3.1963,3.1818,3.1756,3.167,3.1593,3.1413,3.1303,3.1249,3.1153,3.1008,3.0883,3.086,3.0805,3.0775,3.0752,3.0929,3.095,3.0971,3.1007,3.0766,3.0766,3.0571,3.0569,3.0567,3.2551,3.2489,3.2376,3.2242,3.2143,3.2155,3.2047,3.1961,3.183,3.1734,3.1623,3.146,3.1324,3.1236,3.1097,3.1015,3.1007,3.0979,3.098,3.0963,3.1154,3.1193,3.0987,3.0987,3.0988,3.0988,3.0988,3.0988,3.2787,3.2693,3.2594,3.2469,3.2393,3.2303,3.2204,3.2143,3.2027,3.1883,3.1863,3.1711,3.1603,3.1416,3.1343,3.122,3.1243,3.1198,3.1185,3.1172,3.1163,3.1442,3.1195,3.1196,3.1196,3.1196,3.1197,0,3.2947,3.2927,3.2815,3.2694,3.26,3.2501,3.2403,3.2342,3.228,3.2185,3.2045,3.1957,3.1781,3.164,3.1501,3.1432,3.1423,3.142,3.1387,3.1391,3.1414,3.1394,3.17,3.1425,3.1426,3.1428,3.1429,3.1429,3.3177,3.3072,3.2952,3.2878,3.2816,3.2696,3.2616,3.257,3.2486,3.2355,3.227,3.2132,3.2017,3.1792,3.171,3.1575,3.1568,3.1466,3.1546,3.1558,3.1557,3.1562,3.1548,3.1448,3.1446,3.1444,3.1442,0,3.3309,3.3255,3.308,3.297,3.2938,3.2829,3.273,3.2632,3.2581,3.2436,3.2399,3.2314,3.2174,3.2109,3.1934,3.1903,3.171,3.171,3.1748,3.1742,3.1639,3.1647,3.133,3.1283,3.154,3.1538,3.1536,0,3.348,3.3342,3.3269,3.317,3.3016,3.2973,3.2819,3.2759,3.2667,3.2553,3.2539,3.243,3.2365,3.2246,3.22,3.2032,3.2001,3.1964,3.1952,3.1961,3.1964,3.1905,3.1914,3.1937,3.1939,3.194,3.1941,0,3.3685,3.3486,3.3328,3.3272,3.3137,3.3062,3.3001,3.2897,3.2817,3.2703,3.2649,3.2519,3.2444,3.2341,3.2283,3.234,3.2079,3.2143,3.204,3.2041,3.1978,3.1981,3.1725,3.1943,3.1944,3.1945,3.1945,0,3.3812,3.3705,3.3483,3.337,3.3318,3.3212,3.3083,3.2978,3.2868,3.2834,3.2743,3.2722,3.2574,3.2643,3.2436,3.2525,3.2452,3.2405,3.2397,3.2371,3.2448,3.2303,3.2072,3.2042,3.2359,3.2363,3.2366,0,3.406,3.3822,3.3784,3.3573,3.3453,3.3446,3.3326,3.3231,3.3175,3.3062,3.2999,3.2868,3.2907,3.2855,3.2763,3.2689,3.2573,3.2704,3.2527,3.2521,3.2552,3.2341,3.2319,3.2133,3.2409,3.2405,3.2401,0,3.4243,3.4084,3.4048,3.3982,3.3852,3.3751,3.3615,3.3478,3.3405,3.3299,3.3179,3.2996,3.3015,3.293,3.2898,3.2804,3.265,3.2835,3.2831,3.2798,3.2427,3.2407,3.2376,3.2648,3.2643,3.2638,3.2436,0,3.4437,3.4312,3.4217,3.4073,3.3986,3.3851,3.3786,3.3703,3.3683,3.3626,3.345,3.335,3.3203,3.3153,3.313,3.2939,3.2958,3.2979,3.3033,3.2898,3.2829,3.2801,3.3143,3.3144,3.3145,3.3146,0,0,3.4684,3.4502,3.4462,3.433,3.4253,3.4245,3.4106,3.4029,3.3872,3.3817,3.385,3.3574,3.3489,3.3279,3.3233,3.3175,3.3131,3.318,3.2965,3.2945,3.2926,3.2854,3.2826,3.3148,3.3148,3.3148,3.3149,0,3.474,3.4666,3.4532,3.4453,3.4333,3.4282,3.425,3.4127,3.4084,3.3913,3.3901,3.3786,3.3566,3.3476,3.3402,3.3208,3.3199,3.3169,3.3086,3.2978,3.2957,3.2938,3.2863,3.2837,3.3151,3.3151,3.3151,0,3.4904,3.4818,3.4748,3.4578,3.4497,3.4374,3.4419,3.4287,3.4193,3.418,3.4009,3.3942,3.3816,3.363,3.3543,3.3568,3.3264,3.3348,3.334,3.3325,3.3217,3.3191,3.3169,3.3464,3.3465,3.3467,0,0,3.496,3.4845,3.4734,3.4584,3.4535,3.4456,3.4383,3.4354,3.4246,3.4202,3.4116,3.4006,3.3877,3.3793,3.3668,3.3474,3.3439,3.339,3.3375,3.3363,3.3343,3.3231,3.3206,3.3472,3.3472,3.3472,0,0,3.4984,3.4853,3.4853,3.4672,3.4573,3.4448,3.4357,3.4352,3.4234,3.424,3.4179,3.4147,3.3971,3.3904,3.3984,3.3684,3.3741,3.372,3.3733,3.3713,3.3699,3.3715,3.4007,0,0,0,0,0,3.5007,3.487,3.4872,3.4832,3.4612,3.445,3.442,3.4371,3.4413,3.4342,3.4268,3.4266,3.3934,3.4004,3.3961,3.387,3.354,3.3528,3.3516,3.3487,3.3467,3.3451,0,0,0,0,0,0,3.4991,3.4942,3.4875,3.4747,3.4697,3.4454,3.4514,3.4497,3.4419,3.4422,3.4281,3.4261,3.4211,3.4022,3.3984,3.3898,3.402,3.3535,3.3525,3.3516,3.348,3.3464,3.345,0,0,0,0,0,3.4978,3.4939,3.4601,3.4748,3.4705,3.4606,3.4519,3.4505,3.4443,3.4328,3.4309,3.4413,3.4211,3.4175,3.3999,3.3917,3.4045,3.4032,3.3528,3.352,3.3513,3.3472,0,0,0,0,0,0,3.4968,3.4922,3.4591,3.4575,3.4797,3.4619,3.459,3.4512,3.4353,3.4333,3.4457,3.4461,3.4208,3.4181,3.4154,3.3926,3.4066,3.4052,3.4044,3.3522,3.3516,3.351,0,0,0,0,0,0,3.4943,3.4909,3.4583,3.4647,3.4638,3.463,3.4604,3.4446,3.4351,3.449,3.4489,3.4461,3.4246,3.4185,3.4164,3.3918,3.4082,3.4069,3.406,3.4054,3.3517,3.3512,0,0,0,0,0,0,3.4928,3.4899,3.465,3.4644,3.4637,3.446,3.4489,3.4264,3.4413,3.4497,3.4424,3.443,3.4249,3.4227,3.417,3.3934,3.3922,3.4082,3.4073,3.4066,3.4062,0,0,0,0,0,0,0,3.4915,3.5122,3.4682,3.4641,3.4635,3.4434,3.443,3.4425,3.4414,3.4419,3.4423,3.4427,3.4159,3.4144,3.4129,3.3947,0,0,3.4083,3.4077,0,0,0,0,0,0,0,0,3.5133,3.5125,3.4682,3.4679,3.4676,3.4433,3.443,3.4426,3.4415,3.4419,3.4422,3.4426,3.4155,3.4143,3.4131,0,0,0,0,0,0,0,0,0,0,0,0,0,0,0,3.4682,3.4679,0,3.4433,3.443,3.4427,3.4416,3.4419,3.4421,3.4424,3.4151,3.4142,3.4132,0,0,0,0,0,0,0,0,0,0,0,0,0,0,0,0,0,0,0,0,0,0,0,0,0,0,0,0,0,0,0,0,0,0,0,0,0,0,0,0,0,0,0,0,0,0,0,0,0,0,0,0,0,0,0,0,0,0,0,0,0,0,0,0,0,0,0,0,0]}]]]